This is the latest recevied weather packets stored in our database for station/object N7CW. If no packets are shown the sender has not sent any weather packets the latest 10 day(s).
| Time | Temp. | Humidity | Pressure | Rain* | Wind** | Luminosity | Snow |
|---|---|---|---|---|---|---|---|
| 1777332894 | 13.89° C | 26% | 1014.4 hPa | 0 mm | - | 348 W/m² | - |
| 1777332591 | 13.89° C | 26% | 1014.1 hPa | 0 mm | - | 366 W/m² | - |
| 1777332288 | 12.78° C | 27% | 1014.5 hPa | 0 mm | - | 385 W/m² | - |
| 1777331984 | 12.78° C | 26% | 1014.5 hPa | 0 mm | - | 399 W/m² | - |
| 1777331683 | 13.33° C | 26% | 1014.4 hPa | 0 mm | - | 416 W/m² | - |
| 1777331379 | 13.33° C | 26% | 1014.4 hPa | 0 mm | - | 431 W/m² | - |
| 1777331077 | 13.33° C | 26% | 1014.4 hPa | 0 mm | - | 447 W/m² | - |
| 1777330773 | 13.89° C | 26% | 1014 hPa | 0 mm | - | 462 W/m² | - |
| 1777330471 | 13.89° C | 25% | 1014 hPa | 0 mm | - | 477 W/m² | - |
| 1777330168 | 13.33° C | 26% | 1014.5 hPa | 0 mm | - | 494 W/m² | - |
| 1777329866 | 13.33° C | 26% | 1014.4 hPa | 0 mm | - | 508 W/m² | - |
| 1777329565 | 12.78° C | 25% | 1014.4 hPa | 0 mm | - | 522 W/m² | - |
| 1777329262 | 13.89° C | 25% | 1014.2 hPa | 0 mm | - | 537 W/m² | - |
| 1777328960 | 13.89° C | 25% | 1014.1 hPa | 0 mm | - | 550 W/m² | - |
| 1777328657 | 13.89° C | 26% | 1014.4 hPa | 0 mm | - | 563 W/m² | - |
| 1777328355 | 13.33° C | 26% | 1014.4 hPa | 0 mm | - | 577 W/m² | - |
| 1777328053 | 13.89° C | 24% | 1014.4 hPa | 0 mm | - | 590 W/m² | - |
| 1777327751 | 13.33° C | 24% | 1014.2 hPa | 0 mm | - | 603 W/m² | - |
| 1777327449 | 14.44° C | 25% | 1014.4 hPa | 0 mm | - | 615 W/m² | - |
| 1777327145 | 13.89° C | 25% | 1014.2 hPa | 0 mm | - | 627 W/m² | - |
| 1777326843 | 13.33° C | 26% | 1014.4 hPa | 0 mm | - | 640 W/m² | - |
| 1777326539 | 13.33° C | 25% | 1014.5 hPa | 0 mm | - | 650 W/m² | - |
| 1777326237 | 12.78° C | 26% | 1014.1 hPa | 0 mm | - | 662 W/m² | - |
| 1777325934 | 13.89° C | 24% | 1014.2 hPa | 0 mm | - | 673 W/m² | - |
| 1777325632 | 13.89° C | 25% | 1014.4 hPa | 0 mm | - | 684 W/m² | - |
* Rain latest hour (hover to see other rain measurements)
** Current wind speed in m/s (hover to see current wind gust speed)